SCP
0 0 0 0 0 0 0 0 0 0 0 0 0 0 0 0 0 0 0 0 0 0 0 0 0 0 0 0 0 0 0 0 0 0 0 0 0 0 0 0 0 0 0
0 0 0 0 0 0 0 0 0 0 0 0 0 0 0 0 0 0 0 0 0 0 0 0 0 0 0 0 0 0 0 0 0 0 0 0 0 0 0 0 0 0 0
0 0 0 0 0 0 0 0 0 0 0 0 0 0 0 0 0 0 0 0 0 0 0 0 0 0 0 0 0 0 0 0 0 0 0 0 0 0 0 0 0 0 0
0 0 0 0 0 0 0 0 0 0 0 0 0 0 0 0 0 0 0 0 0 0 0 0 0 0 0 0 0 0 0 0 0 0 0 0 0 0 0 0 0 0 0
0 0 0 0 0 0 0 0 0 0 0 0 0 0 0 0 0 0 0 0 0 0 0 0 0 0 0 0 0 0 0 0 0 0 0 0 0 0 0 0 0 0 0
0 0 0 0 0 0 0 0 0 0 0 0 0 0 0 0 0 0 0 0 0 0 0 0 0 0 0 0 0 0 0 0 0 0 0 0 0 0 0 0 0 0 0
0 0 0 0 0 0 0 0 0 0 0 0 0 0 0 0 0 0 0 0 0 0 0 0 0 0 0 0 0 0 0 0 0 0 0 0 0 0 0 0 0 0 0
0 0 0 0 0 0 0 0 0 0 0 0 0 0 0 0 0 0 0 0 0 0 0 0 0 0 0 0 0 0 0 0 0 0 0 0 0 0 0 0 0 0 0
0 0 0 0 0 0 0 0 0 0 0 0 0 0 0 0 0 0 0 0 0 0 0 0 0 0 0 0 0 0 0 0 0 0 0 0 0 0 0 0 0 0 0
0 0 0 0 0 0 0 0 0 0 0 0 0 0 0 0 0 0 0 0 0 0 0 0 0 0 0 0 0 0 0 0 0 0 0 0 0 0 0 0 0 0 0
0 0 0 0 0 0 0 0 0 0 0 0 0 0 0 0 0 0 0 0 0 0 0 0 0 0 0 0 0 0 0 0 0 0 0 0 0 0 0 0 0 0 0
0 0 0 0 0 0 0 0 0 0 0 0 0 0 0 0 0 0 0 0 0 0 0 0 0 0 0 0 0 0 0 0 0 0 0 0 0 0 0 0 0 0 0
0 0 0 0 0 0 0 0 0 0 0 0 0 0 0 0 0 0 0 0 0 0 0 0 0 0 0 0 0 0 0 0 0 0 0 0 0 0 0 0 0 0 0
0 0 0 0 0 0 0 0 0 0 0 0 0 0 0 0 0 0 0 0 0 0 0 0 0 0 0 0 0 0 0 0 0 0 0 0 0 0 0 0 0 0 0
0 0 0 0 0 0 0 0 0 0 0 0 0 0 0 0 0 0 0 0 0 0 0 0 0 0 0 0 0 0 0 0 0 0 0 0 0 0 0 0 0 0 0
0 0 0 0 0 0 0 0 0 0 0 0 0 0 0 0 0 0 0 0 0 0 0 0 0 0 0 0 0 0 0 0 0 0 0 0 0 0 0 0 0 0 0
0 0 0 0 0 0 0 0 0 0 0 0 0 0 0 0 0 0 0 0 0 0 0 0 0 0 0 0 0 0 0 0 0 0 0 0 0 0 0 0 0 0 0
0 0 0 0 0 0 0 0 0 0 0 0 0 0 0 0 0 0 0 0 0 0 0 0 0 0 0 0 0 0 0 0 0 0 0 0 0 0 0 0 0 0 0
0 0 0 0 0 0 0 0 0 0 0 0 0 0 0 0 0 0 0 0 0 0 0 0 0 0 0 0 0 0 0 0 0 0 0 0 0 0 0 0 0 0 0
0 0 0 0 0 0 0 0 0 0 0 0 0 0 0 0 0 0 0 0 0 0 0 0 0 0 0 0 0 0 0 0 0 0 0 0 0 0 0 0 0 0 0
0 0 0 0 0 0 0 0 0 0 0 0 0 0 0 0 0 0 0 0 0 0 0 0 0 0 0 0 0 0 0 0 0 0 0 0 0 0 0 0 0 0 0
0 0 0 0 0 0 0 0 0 0 0 0 0 0 0 0 0 0 0 0 0 0 0 0 0 0 0 0 0 0 0 0 0 0 0 0 0 0 0 0 0 0 0
0 0 0 0 0 0 0 0 0 0 0 0 0 0 0 0 0 0 0 0 0 0 0 0 0 0 0 0 0 0 0 0 0 0 0 0 0 0 0 0 0 0 0
0 0 0 0 0 0 0 0 0 0 0 0 0 0 0 0 0 0 0 0 0 0 0 0 0 0 0 0 0 0 0 0 0 0 0 0 0 0 0 0 0 0 0
0 0 0 0 0 0 0 0 0 0 0 0 0 0 0 0 0 0 0 0 0 0 0 0 0 0 0 0 0 0 0 0 0 0 0 0 0 0 0 0 0 0 0
0 0 0 0 0 0 0 0 0 0 0 0 0 0 0 0 0 0 0 0 0 0 0 0 0 0 0 0 0 0 0 0 0 0 0 0 0 0 0 0 0 0 0
Wind_Speed
7 6 6 5 4 3 2 1 0 0 1 2 3 4 4 5 5 5 5 6 6 5 5 5 5 4 3 3 2 2 2 2 3 1 1 2 3 4 3 2 2 2 2
7 6 5 5 5 4 3 2 1 0 1 2 3 3 4 4 4 5 6 6 6 6 6 6 6 4 5 4 3 3 3 2 3 3 2 2 2 4 4 3 2 2 2
7 7 6 6 6 5 4 4 3 1 0 1 2 3 4 4 5 5 5 6 6 6 6 6 6 6 5 4 4 3 3 2 2 2 2 2 2 2 2 2 2 1 1
7 7 7 6 6 5 4 4 3 2 1 1 2 2 3 4 4 5 5 5 5 5 5 5 6 6 6 6 5 4 4 3 2 2 2 2 2 2 3 2 2 2 1
7 7 6 6 5 5 4 4 3 3 2 2 2 2 2 3 4 5 5 5 5 5 4 4 4 6 7 6 5 5 5 4 3 3 3 2 3 3 4 3 3 2 1
6 6 6 6 6 5 5 4 4 3 3 2 3 3 3 3 5 7 6 4 5 6 5 5 5 5 6 7 7 7 7 6 5 4 3 4 4 4 4 4 4 3 2
6 6 6 6 6 6 6 5 5 4 3 3 3 4 4 5 7 8 9 5 5 5 6 6 5 5 7 5 7 7 5 5 6 4 4 4 4 5 6 5 4 3 3
5 5 6 6 6 6 5 6 6 5 4 4 4 4 4 5 8 9 9 6 4 5 6 7 7 6 7 8 6 5 4 4 4 3 3 3 3 4 6 6 5 4 3
6 6 6 6 7 7 6 6 5 5 5 5 5 5 5 5 9 10 9 5 5 6 6 7 8 8 13 14 9 7 5 4 4 5 5 5 6 7 7 5 5 4 2
6 6 6 6 7 7 7 6 5 5 6 6 6 5 6 6 9 11 11 5 6 6 6 7 12 12 15 16 9 8 8 6 5 4 4 4 3 4 6 5 6 4 3
6 6 7 7 7 7 6 6 6 6 6 6 7 6 6 8 10 14 14 7 7 7 6 6 7 16 17 17 13 8 10 8 6 6 4 3 3 2 2 3 3 4 4
6 6 7 7 7 6 6 6 6 6 6 7 7 7 5 6 9 12 16 15 12 8 7 7 8 16 17 18 13 12 14 11 5 5 4 4 3 3 3 3 4 4 3
6 7 7 7 7 6 6 7 6 5 5 6 6 6 6 5 7 13 15 16 16 9 7 12 14 18 17 14 15 15 12 6 5 5 5 4 4 4 4 4 4 5 5
7 7 7 7 7 6 6 5 5 5 6 6 6 6 6 5 5 5 6 8 11 10 7 11 17 18 13 12 12 10 6 6 6 5 5 4 4 5 4 4 3 3 3
7 7 7 7 7 6 6 6 6 6 7 9 7 7 7 8 8 11 8 7 6 7 6 5 5 6 8 7 6 7 6 6 7 5 5 5 5 5 4 4 4 4 3
6 7 6 6 6 6 6 7 10 11 15 17 16 14 11 14 16 16 16 15 15 14 9 7 8 8 9 9 9 9 8 8 7 6 6 6 6 6 5 4 4 4 4
7 7 6 7 7 7 6 7 8 10 13 15 16 17 16 17 17 16 15 15 16 15 9 7 8 9 9 9 9 9 9 8 7 7 7 7 7 6 6 5 5 4 4
7 9 9 7 7 7 7 7 7 8 9 8 10 15 17 17 15 14 14 11 9 9 7 7 8 8 8 9 9 8 8 8 8 8 7 7 7 7 7 7 6 6 5
8 7 7 7 7 7 7 7 7 8 9 9 7 9 13 14 14 13 11 6 6 6 6 6 7 7 8 8 9 9 9 9 9 8 8 8 8 7 7 7 7 10 7
7 12 11 8 7 7 7 7 8 8 8 8 8 7 6 7 6 6 6 5 5 5 5 5 6 7 8 8 9 9 9 9 10 9 9 9 8 8 8 9 8 7 7
7 9 13 9 7 7 7 8 8 8 8 8 7 8 13 8 6 6 6 5 5 5 5 5 5 6 7 7 8 9 11 9 9 9 9 9 9 9 8 8 8 7 6
7 8 8 8 8 8 8 7 7 8 8 9 7 8 13 8 6 6 6 5 4 4 4 5 5 5 6 8 9 9 10 10 10 10 10 9 9 9 8 8 8 7 7
8 9 9 9 8 12 11 7 7 8 8 8 8 7 6 6 6 6 5 4 4 4 4 4 5 5 5 6 8 9 10 10 10 11 11 10 10 9 9 9 10 9 9
8 9 9 9 9 8 8 8 7 7 8 7 7 7 6 5 5 5 5 4 4 3 3 4 5 6 7 7 6 7 8 8 9 10 13 11 11 10 9 9 9 10 9
8 9 9 9 8 8 8 8 7 7 7 7 7 7 6 5 5 4 4 3 4 4 4 4 3 4 7 8 8 7 10 14 13 10 10 10 11 11 10 10 9 9 8
8 9 8 8 8 8 8 8 7 7 7 7 6 6 5 5 4 4 3 3 3 3 3 3 3 4 5 6 8 10 13 16 17 16 11 9 10 10 10 9 10 9 9
Wind_Direction
27 26 27 21 15 12 19 15 338 236 201 194 192 186 184 183 176 172 176 171 173 172 170 168 175 169 161 163 156 171 183 175 202 156 101 117 133 147 141 133 132 122 120
17 23 26 20 14 12 11 7 10 209 209 202 195 186 186 184 181 181 182 178 181 178 176 172 177 170 171 166 168 183 187 186 184 184 155 142 147 159 151 148 140 125 121
11 16 18 17 15 10 4 357 350 335 254 212 196 194 191 187 187 190 186 184 186 183 180 178 177 172 180 174 173 177 178 174 167 167 163 142 134 142 136 140 150 129 141
8 13 14 7 4 1 355 351 344 336 311 266 225 206 199 194 192 191 192 188 184 180 177 177 177 179 182 177 177 175 170 171 177 176 171 159 156 151 153 167 181 181 184
6 8 3 355 353 354 350 342 335 326 303 274 248 226 214 206 201 193 191 187 179 173 173 172 169 169 172 171 171 174 173 178 183 188 186 173 173 169 188 177 176 155 179
360 358 352 350 349 346 340 332 325 313 295 273 248 229 224 225 212 205 195 188 183 179 177 168 157 153 165 173 175 179 179 183 190 189 193 198 195 190 167 166 150 150 210
351 349 350 348 343 338 333 328 319 307 295 277 261 244 236 227 215 211 206 194 189 186 178 170 170 178 177 170 180 180 182 189 191 183 193 202 192 184 165 164 167 169 186
346 345 345 341 333 327 324 320 315 309 297 285 273 259 251 236 221 216 208 201 195 190 184 180 179 178 181 173 171 171 176 182 186 180 181 193 180 168 168 167 159 126 92
340 338 334 329 324 321 315 308 304 299 294 286 279 266 255 245 229 222 210 196 202 203 195 190 187 187 193 187 176 173 175 177 167 152 146 146 143 151 151 131 134 133 156
324 322 319 314 310 306 301 296 291 285 280 280 274 264 254 248 236 227 215 208 208 208 203 200 200 197 198 193 181 177 184 184 163 155 148 142 136 148 149 150 156 154 152
306 306 305 303 299 295 293 291 289 284 280 274 270 264 252 246 242 235 224 217 212 209 205 200 203 205 203 200 191 186 193 175 165 163 163 161 148 135 119 115 135 151 152
303 300 298 295 294 295 292 291 288 286 283 280 275 272 260 249 243 238 233 228 221 214 211 201 201 203 204 201 198 193 191 175 155 160 165 170 164 157 136 116 104 98 109
300 296 295 295 293 292 288 288 287 281 280 280 274 273 269 256 249 246 241 236 231 225 213 204 200 202 201 201 199 194 185 168 160 171 180 180 169 153 133 115 98 94 80
293 293 293 295 294 293 290 284 282 280 280 280 278 275 273 263 252 244 240 238 233 230 219 210 205 202 194 191 191 191 178 174 173 178 174 161 146 143 147 147 147 144 123
289 289 290 289 289 290 287 281 281 271 276 285 282 278 278 272 260 255 251 243 235 226 204 193 190 184 188 184 180 176 174 178 187 172 170 164 162 162 166 163 153 154 158
290 291 290 290 288 286 288 289 282 281 289 289 286 283 278 275 278 269 260 254 246 233 216 202 200 196 193 189 187 184 184 188 187 180 176 172 172 173 171 165 162 163 171
282 286 287 287 287 287 286 287 293 293 286 287 289 290 286 284 280 272 264 258 248 234 225 211 204 199 196 191 189 186 187 186 182 182 181 176 172 172 172 174 175 173 179
282 283 284 281 281 283 283 281 283 289 295 291 288 290 293 290 284 277 269 261 247 232 224 213 205 199 194 192 190 188 183 180 182 186 183 180 177 176 178 182 182 183 182
288 283 279 278 279 280 282 281 280 280 282 286 289 289 292 294 288 277 268 251 245 240 230 218 205 198 195 192 191 188 186 185 184 185 186 184 182 181 186 187 186 194 189
287 286 288 285 281 280 279 278 278 278 279 281 282 284 290 290 283 274 260 249 245 241 232 226 211 201 195 191 188 187 187 188 186 187 188 187 187 188 190 188 188 190 194
291 293 294 291 282 280 279 278 279 279 278 278 278 282 290 287 280 274 266 256 249 241 230 224 215 203 197 191 188 189 189 190 189 188 189 188 188 190 191 189 190 189 186
296 294 292 290 288 284 282 278 277 277 279 280 281 283 289 286 277 274 267 259 251 244 231 219 215 209 200 194 190 190 192 192 190 187 188 188 188 189 187 188 188 188 186
298 296 294 292 291 290 289 281 278 279 280 280 280 280 279 274 274 276 273 267 256 249 236 221 215 210 204 199 193 191 193 194 191 186 186 187 187 188 187 190 189 186 188
301 297 295 294 293 290 288 287 284 283 284 285 284 280 276 274 275 277 278 275 271 262 247 232 221 213 205 201 197 195 195 188 183 185 185 185 186 186 187 189 190 191 189
304 301 300 298 297 296 294 292 291 290 291 291 290 290 286 281 281 280 276 276 277 271 263 251 232 214 206 203 199 195 193 186 180 178 181 184 185 186 186 186 186 183 184
307 306 304 303 301 301 300 299 299 298 297 295 294 293 292 289 286 283 282 278 279 280 272 260 238 222 214 208 201 195 192 192 189 182 178 181 183 184 181 183 183 182 180